Location: El Bakhil
(32.7726°N, 5.5387°W)
Time: 04:28:00
(UTC+00:00)

SL-16 R/B - Pass Details

Date: 03 March 2021
Orbit: 842 x 846 km, 71.0° (Epoch: 12 April)

Event Time Altitude Azimuth Distance (km) Brightness Sun altitude
Rises 19:26:24 0° 230° (SW) 3,387 6.1 -14.5°
Reaches altitude 10° 19:29:15 10° 243° (WSW) 2,457 5.6 -15.1°
Maximum altitude 19:33:52 26° 299° (WNW) 1,613 4.4 -16.1°
Drops below altitude 10° 19:38:32 10° 354° (N) 2,468 4.7 -17.1°
Sets 19:41:25 0° 8° (N) 3,407 5.3 -17.7°
